NU3S-7 Weather Reports


time (UTC)temp
F
wind
direction
speed
knots
gust
knots
rain 1hr
in
rain 24hr
in
rain mn
in
humidity
%
barometer
mb
20260510045301 54 283 0.0 0.9 0.00 0.00 0.01 100 1010.0
20260510044301 54 163 0.0 2.6 0.00 0.00 0.00 100 1009.8
20260510043334 54 184 0.9 2.6 0.00 0.00 0.00 100 1009.7
20260510043300 54 184 0.9 2.6 0.00 0.00 0.00 100 1009.7
20260510041300 54 180 0.9 3.5 0.00 0.00 0.00 100 1009.5
20260510040259 54 131 0.0 2.6 0.00 0.00 0.00 100 1009.6
20260510035259 54 197 0.0 0.9 0.00 0.00 0.32 100 1009.6
20260510034257 54 167 0.0 1.7 0.00 0.00 0.32 100 1009.7
20260510033256 54 0 0.0 0.0 0.00 0.00 0.32 100 1009.6
20260510032256 54 0 0.0 0.0 0.00 0.00 0.32 100 1009.9
20260510031255 54 0 0.0 0.0 0.00 0.00 0.30 100 1010.4
20260510030255 55 0 0.0 0.0 0.00 0.00 0.26 99 1010.8
20260510025253 55 353 0.0 3.5 0.00 0.00 0.21 98 1010.7
20260510024253 55 55 1.7 6.1 0.00 0.00 0.18 97 1010.6
20260510020249 62 208 1.7 5.2 0.00 0.00 0.09 82 1008.3
20260510015253 62 222 2.6 7.8 0.00 0.00 0.09 81 1008.1
20260510014246 62 239 2.6 6.1 0.00 0.00 0.09 82 1007.9
20260510012245 61 155 1.7 4.3 0.00 0.00 0.09 81 1007.7
20260510011245 62 204 1.7 5.2 0.00 0.00 0.09 80 1007.6
20260510010244 62 222 0.9 2.6 0.00 0.00 0.09 79 1007.6
20260510005244 62 181 0.9 2.6 0.00 0.00 0.09 78 1007.5
20260510004244 63 218 1.7 5.2 0.00 0.00 0.09 77 1007.5
20260510003435 63 218 2.6 5.2 0.00 0.00 0.09 76 1007.4
20260510003243 63 218 2.6 5.2 0.00 0.00 0.09 76 1007.4
20260510001243 64 158 2.6 7.8 0.00 0.00 0.09 74 1007.3
20260510000242 64 232 2.6 7.0 0.00 0.00 0.09 73 1007.1
20260509233508 65 232 2.6 6.1 0.00 0.00 0.09 73 1007.0
20260509232312 66 212 4.3 11.3 0.00 0.00 0.09 72 1006.9
20260509232241 66 212 4.3 11.3 0.00 0.00 0.09 72 1006.9
20260509225239 66 278 5.2 11.3 0.00 0.00 0.09 72 1006.7
20260509224317 66 210 3.5 6.1 0.00 0.00 0.09 72 1006.8
20260509222253 67 262 2.6 8.7 0.00 0.00 0.09 73 1006.6
20260509221504 67 166 3.5 7.8 0.00 0.00 0.09 72 1006.9
20260509220250 67 260 2.6 7.8 0.00 0.00 0.09 73 1007.1
20260509213244 67 197 5.2 10.4 0.00 0.00 0.09 73 1007.1
20260509211239 67 256 5.2 16.5 0.00 0.00 0.09 74 1007.2
20260509210304 66 270 5.2 12.2 0.00 0.00 0.09 73 1007.3
20260509205259 67 290 5.2 13.0 0.00 0.00 0.09 75 1007.5
20260509204255 65 274 5.2 10.4 0.00 0.00 0.09 75 1007.7
20260509203243 66 260 4.3 8.7 0.00 0.00 0.09 78 1007.5
20260509201237 65 259 4.3 12.2 0.00 0.00 0.09 80 1007.9
20260509195231 65 218 3.5 9.6 0.00 0.00 0.09 83 1008.2
20260509194229 64 217 4.3 7.8 0.00 0.00 0.09 83 1008.3
20260509192231 63 217 4.3 8.7 0.00 0.00 0.09 85 1008.4
20260509190226 62 211 4.3 9.6 0.00 0.00 0.09 86 1008.8
20260509185233 62 274 6.1 13.9 0.00 0.00 0.09 85 1008.9
20260509184226 62 283 5.2 13.0 0.00 0.00 0.09 87 1008.9
20260509183225 62 270 4.3 12.2 0.00 0.00 0.09 88 1008.9
20260509180224 60 278 4.3 11.3 0.00 0.00 0.09 92 1009.3
20260509175225 59 290 4.3 9.6 0.00 0.00 0.09 93 1009.3
20260509173229 59 283 4.3 11.3 0.00 0.00 0.09 95 1009.3
20260509172237 58 218 1.7 5.2 0.00 0.00 0.09 96 1009.2
20260509171229 58 203 3.5 8.7 0.00 0.00 0.09 96 1009.0
20260509170232 58 225 4.3 8.7 0.00 0.00 0.09 97 1009.0
20260509165224 57 285 3.5 7.8 0.00 0.00 0.09 99 1008.8
20260509164232 57 293 3.5 7.0 0.00 0.00 0.09 100 1008.8
20260509163220 57 224 2.6 6.1 0.00 0.00 0.09 100 1008.7
20260509161219 55 183 0.9 4.3 0.00 0.00 0.09 100 1008.7
20260509155218 53 166 0.0 1.7 0.00 0.00 0.09 100 1008.7
20260509154505 53 231 0.0 2.6 0.00 0.00 0.09 100 1008.9
20260509154218 53 231 0.0 2.6 0.00 0.00 0.09 100 1008.9
20260509153248 53 276 0.0 2.6 0.00 0.00 0.09 100 1008.9
20260509153217 53 276 0.0 2.6 0.00 0.00 0.09 100 1008.9
20260509152217 53 287 0.9 4.3 0.00 0.00 0.09 100 1008.8
20260509151216 53 274 0.0 2.6 0.00 0.00 0.09 100 1008.7
20260509150357 52 224 1.7 5.2 0.00 0.00 0.08 100 1008.7
20260509150216 52 224 1.7 5.2 0.00 0.00 0.08 100 1008.7
20260509145215 53 211 1.7 7.0 0.00 0.00 0.08 100 1008.8
20260509144215 52 249 0.9 5.2 0.00 0.00 0.08 100 1008.7
20260509143215 53 215 1.7 5.2 0.00 0.00 0.08 100 1008.6
20260509141301 52 138 2.6 7.0 0.00 0.00 0.08 100 1008.8
20260509141212 52 138 2.6 7.0 0.00 0.00 0.08 100 1008.8
20260509140210 52 214 0.9 5.2 0.00 0.00 0.08 100 1008.8
20260509135342 52 242 0.9 6.1 0.00 0.00 0.08 100 1008.8
20260509135210 52 242 0.9 6.1 0.00 0.00 0.08 100 1008.8
20260509134207 52 226 1.7 5.2 0.00 0.00 0.08 100 1008.9
20260509132205 51 210 0.9 4.3 0.00 0.00 0.07 100 1009.0
20260509131205 51 277 0.9 5.2 0.00 0.00 0.07 100 1009.0
20260509130412 51 231 0.0 3.5 0.00 0.00 0.07 100 1009.3
20260509130205 51 231 0.0 3.5 0.00 0.00 0.07 100 1009.3
20260509125337 51 222 0.9 3.5 0.00 0.00 0.07 100 1009.4
20260509125204 51 222 0.9 3.5 0.00 0.00 0.07 100 1009.4
20260509124253 51 180 0.9 3.5 0.00 0.00 0.07 100 1009.3
20260509124204 51 180 0.9 3.5 0.00 0.00 0.07 100 1009.3
20260509123202 51 221 1.7 5.2 0.00 0.00 0.06 100 1009.3
20260509122421 51 225 0.9 3.5 0.00 0.00 0.06 100 1009.4
20260509122201 51 225 0.9 3.5 0.00 0.00 0.06 100 1009.4
20260509121506 51 232 0.9 3.5 0.00 0.00 0.05 100 1009.4
20260509121201 51 232 0.9 3.5 0.00 0.00 0.05 100 1009.4
20260509120200 51 218 1.7 5.2 0.00 0.00 0.05 100 1009.4
20260509115200 51 195 0.9 3.5 0.00 0.00 0.04 100 1009.3
20260509113159 51 179 1.7 6.1 0.00 0.00 0.03 100 1009.2
20260509112240 51 221 2.6 5.2 0.00 0.00 0.03 100 1009.2
20260509112159 51 221 2.6 5.2 0.00 0.00 0.03 100 1009.2
20260509111237 51 212 2.6 6.1 0.00 0.00 0.02 100 1009.0
20260509111158 51 212 2.6 6.1 0.00 0.00 0.02 100 1009.0
20260509110158 51 276 3.5 7.8 0.00 0.00 0.01 100 1008.9
20260509105506 51 217 3.5 7.0 0.00 0.00 0.01 100 1008.8
20260509105158 51 217 3.5 7.0 0.00 0.00 0.01 100 1008.8
20260509104505 51 215 0.9 6.1 0.00 0.00 0.01 100 1008.7
20260509104157 51 215 0.9 6.1 0.00 0.00 0.01 100 1008.7
20260509103505 51 253 3.5 8.7 0.00 0.00 0.01 100 1008.8
20260509103157 51 253 3.5 8.7 0.00 0.00 0.01 100 1008.8
20260509102504 51 198 2.6 7.0 0.00 0.00 0.01 100 1008.8
20260509102156 51 198 2.6 7.0 0.00 0.00 0.01 100 1008.8
20260509101156 51 201 2.6 7.0 0.00 0.00 0.01 100 1008.8
20260509095410 51 215 2.6 4.3 0.00 0.00 0.01 100 1008.9
20260509095155 51 215 2.6 4.3 0.00 0.00 0.01 100 1008.9
20260509094155 51 222 2.6 7.0 0.00 0.00 0.01 100 1009.0
20260509093155 51 233 0.9 5.2 0.00 0.00 0.01 100 1009.2
20260509092503 51 226 1.7 4.3 0.00 0.00 0.01 100 1009.3
20260509092154 51 226 1.7 4.3 0.00 0.00 0.01 100 1009.3
20260509091355 50 214 1.7 5.2 0.00 0.00 0.01 100 1009.4
20260509091154 50 214 1.7 5.2 0.00 0.00 0.01 100 1009.4
20260509090504 50 0 0.0 0.0 0.00 0.00 0.00 100 1009.4
20260509090154 50 0 0.0 0.0 0.00 0.00 0.00 100 1009.4
20260509085506 49 0 0.0 0.0 0.00 0.00 0.00 100 1009.6
20260509085153 49 0 0.0 0.0 0.00 0.00 0.00 100 1009.6
20260509084224 50 0 0.0 0.0 0.00 0.00 0.00 100 1009.6
20260509084153 50 0 0.0 0.0 0.00 0.00 0.00 100 1009.6
20260509083230 49 0 0.0 0.0 0.00 0.00 0.00 100 1009.5
20260509083152 49 0 0.0 0.0 0.00 0.00 0.00 100 1009.5
20260509082506 49 0 0.0 0.0 0.00 0.00 0.00 100 1009.6
20260509082152 49 0 0.0 0.0 0.00 0.00 0.00 100 1009.6
20260509081504 50 0 0.0 0.0 0.00 0.00 0.00 100 1009.5
20260509081152 50 0 0.0 0.0 0.00 0.00 0.00 100 1009.5
20260509080505 50 0 0.0 0.0 0.00 0.00 0.00 100 1009.3
20260509080151 50 0 0.0 0.0 0.00 0.00 0.00 100 1009.3
20260509075151 50 0 0.0 0.0 0.00 0.00 0.00 100 1009.5
20260509074504 50 0 0.0 0.0 0.00 0.00 0.00 100 1009.5
20260509074149 50 0 0.0 0.0 0.00 0.00 0.00 100 1009.5
20260509073505 50 0 0.0 0.0 0.00 0.00 0.00 100 1009.3
20260509073148 50 0 0.0 0.0 0.00 0.00 0.00 100 1009.3
20260509072148 50 0 0.0 0.0 0.00 0.00 0.00 100 1008.9
20260509071147 50 0 0.0 0.0 0.00 0.00 0.00 100 1008.9
20260509070146 50 0 0.0 0.0 0.00 0.00 0.00 100 1008.9
20260509065141 50 304 0.0 2.6 0.00 0.00 0.00 100 1009.0
20260509063141 50 208 0.0 1.7 0.00 0.00 0.00 100 1009.5
20260509062140 50 0 0.0 0.0 0.00 0.00 0.00 100 1009.7
20260509061140 50 0 0.0 0.0 0.00 0.00 0.00 100 1009.8
20260509060139 50 0 0.0 0.0 0.00 0.00 0.00 100 1009.7
20260509055139 50 0 0.0 0.0 0.00 0.00 0.00 100 1009.8
20260509054303 50 0 0.0 0.0 0.00 0.00 0.00 100 1010.0
20260509054139 50 0 0.0 0.0 0.00 0.00 0.00 100 1010.0
20260509053138 50 0 0.0 0.0 0.00 0.00 0.00 100 1010.1
20260509052138 50 0 0.0 0.0 0.00 0.00 0.00 100 1010.2
20260509051504 50 0 0.0 0.0 0.00 0.00 0.00 100 1010.2
20260509051136 50 0 0.0 0.0 0.00 0.00 0.00 100 1010.2
20260509050503 50 0 0.0 0.0 0.00 0.00 0.00 100 1010.2
20260509050136 50 0 0.0 0.0 0.00 0.00 0.00 100 1010.2